[[{"header":{"parameterUnit":"m.s-1","parameterCategory":2,"la1":30.2991,"la2":30.254,"lo1":-89.0895,"lo2":-89.0444,"dy":0.0017,"dx":0.0017,"nx":28,"ny":28,"refTime":"2025-04-10T09:00:00:Z","depth":"0","parameterNumber":2,"parameterNumberName":"U-component_of_CURRENTS"},"data":[0,0,0,0,0,0,0,0,0,0,0,0,0,0,0,0,0,0,0,0,0,0,0,0,0,0,0,0,0,0,0,0,0,0,0,0,0,0,0,0,0,0,0,0,0,0,0,0,0,0,0,0,0,0,0,0,0,0,0.2546,0.2545,0,0.2502,0.2502,0.2502,0.2494,0.2494,0.2494,0.2494,0.2543,0.2544,0.2546,0,0,0,0,0,0,0,0,0,0,0,0,0,0.2608,0.2607,0.2546,0.2545,0.2544,0.2502,0.2502,0.2501,0.2494,0.2494,0.2494,0.2494,0.2543,0.2544,0.2546,0,0,0,0,0,0,0,0,0,0,0,0,0,0.2577,0.2607,0.2546,0.2534,0.2532,0.2502,0.2502,0.2501,0.2494,0.2494,0.2494,0.2494,0.2542,0.2544,0.2546,0.2553,0,0,0.2551,0.2552,0,0,0,0,0,0,0,0,0.2579,0.2575,0.2536,0.2534,0.2532,0.2501,0.2541,0.2522,0.2494,0.2511,0.2494,0.2495,0.2536,0.2538,0.2532,0.2555,0.2557,0.2551,0.2552,0.2553,0.2554,0,0,0,0,0,0,0,0.2581,0.2577,0.2531,0.2535,0.2533,0.2525,0.2521,0.2538,0.2527,0.2509,0.2508,0.2499,0.2536,0.253,0.2533,0.2558,0.2551,0.2553,0.2554,0.2555,0.2651,0.2653,0,0,0,0,0,0,0.2582,0.2579,0.2532,0.2529,0.2554,0.2524,0.252,0.2513,0.2524,0.2525,0.2499,0.2499,0.2527,0.2531,0.2535,0.2571,0.2553,0.2555,0.2556,0.265,0.2652,0.2653,0,0,0,0,0,0,0.2583,0.2578,0.2534,0.2551,0.2545,0.2522,0.2515,0.2512,0.2503,0.2515,0.2518,0.2492,0.2527,0.2533,0.2565,0.2572,0.2556,0.2557,0.2648,0.265,0.2653,0.2627,0,0,0,0,0,0,0.2585,0.2579,0.2573,0.2551,0.2544,0.2508,0.2515,0.2511,0.2496,0.2495,0.251,0.2515,0.2528,0.2562,0.2566,0.2575,0.2559,0.2646,0.2649,0.2652,0.2626,0.2628,0.263,0,0,0,0,0,0.2588,0.2574,0.2573,0.2567,0.2537,0.2507,0.2503,0.2489,0.2495,0.2484,0.2514,0.2514,0.2584,0.2564,0.2569,0.2578,0.2645,0.2648,0.2652,0.2625,0.2628,0.263,0,0,0,0,0,0,0.2582,0.2571,0.257,0.255,0.2528,0.2505,0.2489,0.2487,0.2498,0.2502,0.2527,0.2533,0.2566,0.2583,0.2561,0.262,0.2617,0.2621,0.2595,0.2598,0.26,0.2576,0.256,0,0,0,0,0,0.2582,0.2581,0.2557,0.254,0.2527,0.251,0.2497,0.2488,0.2492,0.2494,0.2517,0.2551,0.2583,0.2598,0.2625,0.2651,0.2672,0.2666,0.2668,0.2669,0.2656,0.2716,0.2722,0.2665,0.2665,0.2664,0,0,0.2572,0.2568,0.2564,0.2541,0.2523,0.2507,0.2503,0.2475,0.2477,0.2501,0.2524,0.2554,0.2593,0.2626,0.2642,0.2639,0.2697,0.2673,0.2673,0.266,0.272,0.2726,0.273,0.2667,0.2666,0.2666,0,0,0.2549,0.2548,0.2535,0.2528,0.2502,0.2494,0.2487,0.2471,0.2476,0.2495,0.2526,0.2559,0.2605,0.2633,0.2655,0.2686,0.2706,0.2705,0.2691,0.275,0.2754,0.2758,0.2785,0.2792,0.2706,0.2706,0.2706,0,0.2537,0.2525,0.2522,0.251,0.2503,0.2491,0.2472,0.2475,0.2481,0.2492,0.2502,0.2578,0.2606,0.2651,0.2665,0.2686,0.2718,0.2672,0.2749,0.2754,0.2759,0.2786,0.2793,0.2705,0.2705,0.2705,0.2705,0,0.251,0.2503,0.2492,0.2488,0.2475,0.2457,0.2458,0.2461,0.2473,0.2486,0.2527,0.2569,0.2612,0.2635,0.2657,0.2708,0.2719,0.2742,0.2734,0.2762,0.279,0.2798,0.2704,0.2704,0.2704,0.2705,0,0,0.2487,0.2475,0.2475,0.247,0.2467,0.245,0.2456,0.2455,0.2458,0.2491,0.2509,0.2571,0.259,0.2617,0.2653,0.2701,0.2759,0.2733,0.2737,0.2741,0.2875,0.2733,0.2729,0.2804,0.2805,0.2806,0.2877,0,0.2467,0.2444,0.2448,0.2433,0.2419,0.2426,0.243,0.2436,0.2451,0.2474,0.2523,0.2557,0.2587,0.2606,0.2659,0.2739,0.2782,0.2736,0.2862,0.2864,0.272,0.2734,0.2572,0.2608,0.2885,0.2887,0.2888,0,0.2447,0.2439,0.241,0.2407,0.2399,0.2395,0.2394,0.2394,0.2426,0.244,0.2481,0.2521,0.2589,0.2612,0.2746,0.272,0.2789,0.2846,0.2851,0.2728,0.2737,0.2629,0.2613,0.2501,0.2901,0.29,0.2899,0,0.243,0.242,0.2396,0.2398,0.2385,0.238,0.2377,0.2387,0.2382,0.2422,0.2425,0.2513,0.2551,0.2662,0.2759,0.2772,0.2895,0.2933,0.2866,0.2857,0.2743,0.2719,0.2612,0.3023,0.3023,0.3023,0.3022,0,0.2415,0.2403,0.239,0.2378,0.2357,0.2361,0.2335,0.2344,0.2353,0.2341,0.2407,0.2419,0.257,0.2648,0.2754,0.281,0.2896,0.2848,0.2863,0.2728,0.2703,0.262,0.2605,0.3025,0.3025,0.3024,0.3024,0,0.2392,0.2383,0.2357,0.2343,0.2339,0.2323,0.2301,0.2281,0.2297,0.2284,0.2297,0.237,0.2458,0.2578,0.2746,0.2771,0.2758,0.2865,0.2667,0.2653,0.2446,0.2438,0.2292,0.225,0.2798,0.2795,0.2792,0,0.2375,0.2354,0.2322,0.2301,0.2294,0.2273,0.2244,0.225,0.2227,0.2246,0.2236,0.2309,0.2333,0.2481,0.2556,0.2666,0.2641,0.2556,0.2535,0.2381,0.2387,0.2319,0.2293,0.2395,0.2389,0.2385,0.2381,0,0.2346,0.2327,0.2304,0.2249,0.222,0.2181,0.2154,0.2129,0.2124,0.2113,0.2109,0.2133,0.2221,0.2228,0.2321,0.2386,0.2363,0.2458,0.2376,0.2098,0.1946,0.193,0.2393,0.2339,0.2343,0.2346,0.2349,0.235,0.2326,0.2296,0.2248,0.2191,0.215,0.2085,0.2031,0.2009,0.1961,0.1917,0.1978,0.1948,0.1956,0.2049,0.2082,0.1962,0.2079,0.1918,0.1937,0.1895,0.1773,0.2099,0.2005,0.2007,0.2009,0.2011,0.2012,0,0.229,0.2244,0.2191,0.2106,0.2022,0.2024,0.1952,0.1884,0.1804,0.1785,0.1761,0.1672,0.1621,0.1631,0.1542,0.1463,0.1451,0.142,0.1317,0.1342,0.1694,0.1589,0.1303,0.1303,0.1303,0.1303,0.1303,0.1303,0.2267,0.2198,0.2147,0.1992,0.1929,0.1804,0.1748,0.1672,0.1624,0.1499,0.141,0.1397,0.1334,0.1176,0.1042,0.1041,0.0998,0.089,0.0986,0.1238,0.1287,0.1334,0.1228,0.0871,0.0871,0.0549,0.0547,0.0545]},{"header":{"parameterUnit":"m.s-1","parameterCategory":2,"la1":30.2991,"la2":30.254,"lo1":-89.0895,"lo2":-89.0444,"dy":0.0017,"dx":0.0017,"nx":28,"ny":28,"refTime":"2025-04-10T09:00:00:Z","depth":"0","parameterNumber":3,"parameterNumberName":"V-component_of_CURRENTS"},"data":[0,0,0,0,0,0,0,0,0,0,0,0,0,0,0,0,0,0,0,0,0,0,0,0,0,0,0,0,0,0,0,0,0,0,0,0,0,0,0,0,0,0,0,0,0,0,0,0,0,0,0,0,0,0,0,0,0,0,0.0301,0.0302,0,0.038,0.0381,0.0382,0.0424,0.0424,0.0425,0.0425,0.0452,0.0452,0.0453,0,0,0,0,0,0,0,0,0,0,0,0,0,0.0252,0.0252,0.0301,0.0302,0.0303,0.038,0.0381,0.0382,0.0424,0.0424,0.0425,0.0425,0.0452,0.0452,0.0453,0,0,0,0,0,0,0,0,0,0,0,0,0,0.0296,0.0252,0.0301,0.0334,0.0337,0.038,0.0381,0.0382,0.0424,0.0424,0.0425,0.0425,0.0451,0.0452,0.0453,0.0456,0,0,0.0456,0.0456,0,0,0,0,0,0,0,0,0.0293,0.0298,0.0328,0.0331,0.0336,0.0392,0.0373,0.0404,0.0424,0.0391,0.0425,0.0425,0.0427,0.043,0.0445,0.0457,0.0458,0.0456,0.0457,0.0457,0.0457,0,0,0,0,0,0,0,0.029,0.0295,0.0332,0.0329,0.0334,0.0366,0.0372,0.038,0.0406,0.0394,0.0398,0.0406,0.0429,0.0444,0.0446,0.0459,0.0456,0.0457,0.0457,0.0458,0.0501,0.0502,0,0,0,0,0,0,0.0277,0.0291,0.033,0.0335,0.0314,0.0367,0.0373,0.0374,0.0408,0.0413,0.0406,0.0408,0.0443,0.0445,0.0447,0.0477,0.0457,0.0458,0.0458,0.05,0.0501,0.0502,0,0,0,0,0,0,0.0275,0.0279,0.0327,0.0316,0.0324,0.0367,0.0368,0.0376,0.0392,0.0417,0.0422,0.0414,0.0443,0.0446,0.0464,0.0477,0.0458,0.0459,0.05,0.0501,0.0502,0.052,0,0,0,0,0,0,0.0273,0.0278,0.0276,0.0314,0.0324,0.0353,0.0368,0.0377,0.0397,0.04,0.0426,0.0429,0.0443,0.0463,0.0465,0.0478,0.046,0.0499,0.05,0.0501,0.0518,0.0521,0.0524,0,0,0,0,0,0.0271,0.0272,0.0275,0.028,0.0319,0.0353,0.0361,0.0393,0.0397,0.0407,0.0428,0.0428,0.0471,0.0464,0.0467,0.048,0.0499,0.05,0.0501,0.0517,0.0521,0.0523,0,0,0,0,0,0,0.0258,0.0278,0.0282,0.029,0.0317,0.036,0.0373,0.0389,0.0415,0.0415,0.0435,0.044,0.0463,0.0466,0.0457,0.0496,0.0485,0.0487,0.0496,0.0499,0.0502,0.0501,0.0461,0,0,0,0,0,0.025,0.0251,0.028,0.0288,0.0297,0.0332,0.0349,0.0368,0.0396,0.0407,0.0428,0.0447,0.0471,0.0479,0.0498,0.0514,0.0517,0.0524,0.0526,0.0528,0.053,0.0557,0.0563,0.0506,0.0506,0.0506,0,0,0.0248,0.0259,0.0261,0.0284,0.0306,0.0329,0.0343,0.0367,0.0389,0.0404,0.0437,0.0455,0.0477,0.0505,0.0515,0.0508,0.0544,0.053,0.0532,0.0532,0.0559,0.0565,0.057,0.0507,0.0507,0.0507,0,0,0.0251,0.0252,0.0256,0.0275,0.0302,0.0325,0.0329,0.0367,0.0386,0.0417,0.0438,0.0465,0.0494,0.0522,0.0536,0.056,0.0557,0.0561,0.0573,0.06,0.0605,0.0609,0.0609,0.0613,0.0561,0.0561,0.0561,0,0.0249,0.0257,0.0266,0.028,0.0298,0.0321,0.034,0.0364,0.0407,0.0425,0.0427,0.0492,0.0506,0.0552,0.0563,0.0566,0.057,0.056,0.0603,0.0608,0.0612,0.0611,0.0615,0.0562,0.0562,0.0562,0.0562,0,0.0258,0.0267,0.0273,0.0293,0.0314,0.0333,0.0364,0.0386,0.0407,0.0437,0.0483,0.0513,0.0553,0.0562,0.0571,0.0611,0.0599,0.0604,0.0595,0.0619,0.0616,0.062,0.0563,0.0563,0.0563,0.0563,0,0,0.0248,0.0274,0.0276,0.0289,0.0321,0.0341,0.0372,0.0413,0.0444,0.0477,0.0526,0.0563,0.0579,0.0597,0.0614,0.0636,0.0664,0.063,0.0631,0.0629,0.0705,0.0672,0.0673,0.0679,0.068,0.0681,0.0687,0,0.0255,0.0276,0.0291,0.0321,0.0337,0.0365,0.0397,0.0434,0.0471,0.0523,0.0555,0.0605,0.0593,0.062,0.0639,0.0676,0.0679,0.0661,0.0684,0.0684,0.0651,0.0679,0.0681,0.0685,0.0691,0.0692,0.0692,0,0.0258,0.0273,0.0297,0.0336,0.0346,0.0369,0.0423,0.0456,0.0522,0.0554,0.06,0.0635,0.0685,0.0668,0.0715,0.0705,0.0697,0.0708,0.0709,0.0675,0.066,0.0665,0.0692,0.0684,0.0699,0.0698,0.0698,0,0.0244,0.0279,0.0297,0.0309,0.0356,0.0374,0.0404,0.0463,0.0504,0.0578,0.0629,0.0677,0.0729,0.0733,0.075,0.0739,0.0793,0.0782,0.0732,0.0729,0.0734,0.0729,0.0757,0.0789,0.0789,0.0789,0.0789,0,0.0243,0.0258,0.029,0.0301,0.0331,0.0366,0.0412,0.0452,0.0526,0.0597,0.0643,0.0719,0.0752,0.0791,0.0771,0.0771,0.0805,0.0737,0.0736,0.0737,0.0733,0.0728,0.0723,0.079,0.079,0.079,0.079,0,0.0222,0.0244,0.0266,0.0309,0.0323,0.0343,0.041,0.0455,0.0525,0.0623,0.0655,0.0766,0.0824,0.0826,0.0855,0.0812,0.0803,0.0781,0.0765,0.0761,0.0694,0.069,0.073,0.0739,0.0732,0.0731,0.0731,0,0.0212,0.022,0.0259,0.0276,0.0293,0.033,0.0368,0.044,0.0502,0.0661,0.072,0.0814,0.0899,0.0914,0.0861,0.0809,0.0797,0.075,0.0723,0.0694,0.069,0.0707,0.0713,0.0733,0.0733,0.0732,0.0732,0,0.0194,0.0205,0.0222,0.026,0.0294,0.0344,0.0407,0.0461,0.0575,0.0677,0.0833,0.0918,0.0948,0.0941,0.0857,0.0809,0.076,0.0737,0.0734,0.0713,0.0711,0.0717,0.0704,0.0729,0.0729,0.0729,0.0729,0.0729,0.0177,0.0182,0.0213,0.0251,0.0298,0.0378,0.0438,0.0535,0.0657,0.0855,0.0904,0.1052,0.1003,0.0913,0.0845,0.0713,0.0736,0.0674,0.0675,0.0698,0.07,0.0656,0.0661,0.0661,0.0661,0.0661,0.0661,0,0.0162,0.018,0.0212,0.0274,0.0341,0.037,0.0488,0.0584,0.075,0.0914,0.1055,0.1099,0.1028,0.0925,0.0746,0.0675,0.0673,0.0641,0.0681,0.0693,0.0679,0.067,0.0646,0.0646,0.0646,0.0646,0.0646,0.0646,0.0156,0.0178,0.0203,0.031,0.0366,0.0485,0.0566,0.0719,0.0856,0.1078,0.1176,0.1238,0.1151,0.0866,0.0706,0.0663,0.0671,0.0651,0.0658,0.0649,0.0653,0.0657,0.0649,0.0621,0.0621,0.0694,0.0694,0.0695]}],[{"header":{"parameterUnit":"m.s-1","parameterCategory":2,"la1":30.2991,"la2":30.254,"lo1":-89.0895,"lo2":-89.0444,"dy":0.0017,"dx":0.0017,"nx":28,"ny":28,"refTime":"2025-04-10T09:00:00:Z","depth":"2","parameterNumber":2,"parameterNumberName":"U-component_of_CURRENTS"},"data":[0,0,0,0,0,0,0,0,0,0,0,0,0,0,0,0,0,0,0,0,0,0,0,0,0,0,0,0,0,0,0,0,0,0,0,0,0,0,0,0,0,0,0,0,0,0,0,0,0,0,0,0,0,0,0,0,0,0,0.0937,0.0941,0,0.1146,0.1147,0.1147,0.1259,0.1261,0.1264,0.1266,0.1354,0.1354,0.1354,0,0,0,0,0,0,0,0,0,0,0,0,0,0.0865,0.0862,0.0936,0.0941,0.0946,0.1146,0.1147,0.1147,0.1259,0.1261,0.1264,0.1267,0.1354,0.1354,0.1354,0,0,0,0,0,0,0,0,0,0,0,0,0,0.0944,0.0861,0.0935,0.1043,0.1057,0.1146,0.1147,0.1148,0.1258,0.1262,0.1265,0.1269,0.1354,0.1354,0.1354,0.1282,0,0,0.1354,0.1354,0,0,0,0,0,0,0,0,0.0939,0.0943,0.1023,0.1036,0.1052,0.1201,0.1156,0.1195,0.1257,0.1156,0.1266,0.127,0.1304,0.1309,0.1308,0.1286,0.129,0.1354,0.1354,0.1354,0.1354,0,0,0,0,0,0,0,0.0933,0.0937,0.0995,0.1028,0.1046,0.1164,0.1173,0.1163,0.1186,0.1165,0.118,0.124,0.1309,0.1307,0.1311,0.1291,0.1354,0.1354,0.1354,0.1354,0.145,0.1452,0,0,0,0,0,0,0.0938,0.0929,0.0989,0.1004,0.1031,0.1162,0.1173,0.113,0.119,0.121,0.1237,0.1245,0.1305,0.131,0.1314,0.1332,0.1354,0.1354,0.1354,0.1447,0.145,0.1453,0,0,0,0,0,0,0.0934,0.0937,0.0981,0.0998,0.1015,0.116,0.1111,0.1133,0.1188,0.125,0.1264,0.1282,0.1308,0.1314,0.1337,0.1333,0.1354,0.1354,0.1444,0.1448,0.1451,0.1304,0,0,0,0,0,0,0.0928,0.093,0.0905,0.0994,0.1015,0.1038,0.1111,0.1135,0.1229,0.1242,0.1291,0.13,0.1311,0.1337,0.1338,0.1333,0.1355,0.1441,0.1446,0.145,0.1305,0.1302,0.1299,0,0,0,0,0,0.0923,0.089,0.0899,0.0911,0.0968,0.1041,0.1057,0.1163,0.1228,0.1227,0.1278,0.1302,0.137,0.1336,0.1337,0.1333,0.1439,0.1445,0.145,0.1307,0.1303,0.1299,0,0,0,0,0,0,0.0877,0.0902,0.0915,0.0895,0.0965,0.1069,0.1146,0.1179,0.1217,0.1271,0.1289,0.1298,0.1344,0.1366,0.133,0.1393,0.1426,0.1431,0.1318,0.1314,0.131,0.1348,0.1355,0,0,0,0,0,0.0843,0.0804,0.0875,0.0869,0.0934,0.1034,0.109,0.1147,0.1212,0.1238,0.123,0.1291,0.1355,0.1356,0.1405,0.1383,0.1435,0.1408,0.1404,0.14,0.1442,0.1509,0.1513,0.1471,0.1471,0.1471,0,0,0.0846,0.0851,0.0841,0.0857,0.0959,0.0994,0.1073,0.1187,0.1188,0.1237,0.1221,0.1278,0.1363,0.1371,0.1393,0.1382,0.143,0.1407,0.1402,0.1448,0.1515,0.1518,0.1521,0.1475,0.1474,0.1473,0,0,0.0867,0.0838,0.0849,0.0864,0.099,0.1029,0.1062,0.1136,0.1166,0.1154,0.1233,0.1276,0.1293,0.1337,0.1381,0.1391,0.1436,0.1429,0.1389,0.1449,0.1452,0.1455,0.1458,0.1463,0.1391,0.139,0.139,0,0.0884,0.0835,0.0877,0.089,0.0921,0.1038,0.1068,0.1096,0.1126,0.1147,0.1154,0.1253,0.1287,0.1359,0.137,0.1376,0.1416,0.1369,0.1437,0.1443,0.1448,0.1451,0.1458,0.1384,0.1385,0.1385,0.1386,0,0.0899,0.0858,0.09,0.0896,0.0929,0.0978,0.1036,0.1053,0.1094,0.1096,0.1166,0.12,0.1269,0.1279,0.1321,0.1393,0.1406,0.1438,0.1422,0.1442,0.1445,0.1455,0.1375,0.1377,0.1379,0.138,0,0,0.0882,0.0903,0.0884,0.0889,0.0919,0.0953,0.0992,0.104,0.1079,0.1077,0.1104,0.1186,0.1226,0.1288,0.1333,0.1363,0.1386,0.141,0.1416,0.1369,0.1492,0.1322,0.1316,0.1426,0.1429,0.1431,0.1449,0,0.0881,0.087,0.0859,0.0845,0.088,0.0931,0.0931,0.0982,0.1022,0.104,0.1139,0.1189,0.1224,0.1268,0.1307,0.1411,0.1422,0.1378,0.1525,0.1529,0.1339,0.1326,0.1272,0.1271,0.1459,0.1461,0.1462,0,0.0877,0.0838,0.0847,0.0828,0.0855,0.0844,0.0904,0.0918,0.1003,0.1048,0.1129,0.1188,0.1277,0.1297,0.1437,0.1414,0.146,0.1502,0.1504,0.1422,0.1379,0.1306,0.1283,0.148,0.1478,0.1477,0.1476,0,0.088,0.082,0.0821,0.0797,0.0808,0.0836,0.0856,0.0928,0.0968,0.1073,0.1117,0.1217,0.1301,0.1387,0.1482,0.1474,0.1617,0.1604,0.148,0.1466,0.1493,0.1476,0.1696,0.1696,0.1696,0.1696,0.1696,0,0.0865,0.0812,0.0812,0.0809,0.0771,0.0814,0.0845,0.0898,0.0986,0.1044,0.1128,0.1204,0.1344,0.1428,0.149,0.1511,0.1623,0.1485,0.1471,0.1431,0.1409,0.1678,0.1676,0.1696,0.1696,0.1696,0.1696,0,0.0863,0.0854,0.0828,0.0819,0.0812,0.0788,0.0827,0.0869,0.0958,0.1051,0.1097,0.123,0.1336,0.1413,0.1553,0.1507,0.1548,0.1529,0.1433,0.1404,0.1341,0.1332,0.1356,0.135,0.1345,0.1341,0.1338,0,0.0858,0.0893,0.0863,0.0824,0.0806,0.0785,0.0817,0.0875,0.0924,0.107,0.1121,0.1234,0.1305,0.1381,0.1371,0.1374,0.1473,0.1266,0.1218,0.1328,0.1313,0.1311,0.1309,0.1188,0.1184,0.1181,0.1178,0,0.0859,0.089,0.0859,0.0843,0.0822,0.0804,0.0841,0.0867,0.0979,0.1032,0.1155,0.1212,0.1252,0.1219,0.1169,0.1173,0.1244,0.1181,0.14,0.1242,0.1161,0.1148,0.1154,0.1147,0.115,0.1152,0.1154,0.1155,0.0831,0.0798,0.0862,0.0827,0.0828,0.0886,0.0878,0.0926,0.0994,0.1074,0.1137,0.1159,0.1116,0.0986,0.0968,0.094,0.0989,0.0949,0.0966,0.0985,0.0922,0.0833,0.0744,0.0744,0.0745,0.0746,0.0746,0,0.0787,0.0816,0.0847,0.0806,0.0867,0.0901,0.0949,0.0942,0.0994,0.1013,0.1056,0.0921,0.0868,0.0858,0.0744,0.0658,0.0737,0.0648,0.0776,0.0805,0.0832,0.0767,0.0545,0.0544,0.0543,0.0543,0,0,0.0736,0.0759,0.0835,0.091,0.0924,0.0986,0.1023,0.0997,0.0971,0.0905,0.085,0.0866,0.0816,0.0667,0.0622,0.0578,0.0707,0.0569,0.0733,0.0916,0.0942,0.1,0.0929,0,0,0,0,0]},{"header":{"parameterUnit":"m.s-1","parameterCategory":2,"la1":30.2991,"la2":30.254,"lo1":-89.0895,"lo2":-89.0444,"dy":0.0017,"dx":0.0017,"nx":28,"ny":28,"refTime":"2025-04-10T09:00:00:Z","depth":"2","parameterNumber":3,"parameterNumberName":"V-component_of_CURRENTS"},"data":[0,0,0,0,0,0,0,0,0,0,0,0,0,0,0,0,0,0,0,0,0,0,0,0,0,0,0,0,0,0,0,0,0,0,0,0,0,0,0,0,0,0,0,0,0,0,0,0,0,0,0,0,0,0,0,0,0,0,0.0266,0.0265,0,0.0241,0.0241,0.0241,0.023,0.0229,0.0229,0.0228,0.0175,0.0174,0.0173,0,0,0,0,0,0,0,0,0,0,0,0,0,0.0238,0.0239,0.0266,0.0265,0.0264,0.0241,0.0241,0.0241,0.023,0.0229,0.0228,0.0228,0.0175,0.0174,0.0173,0,0,0,0,0,0,0,0,0,0,0,0,0,0.0241,0.024,0.0266,0.0251,0.0249,0.0241,0.0241,0.0241,0.023,0.0229,0.0228,0.0228,0.0176,0.0174,0.0173,0.018,0,0,0.0169,0.0168,0,0,0,0,0,0,0,0,0.0241,0.0243,0.0254,0.0252,0.025,0.0232,0.0211,0.0218,0.023,0.0243,0.0228,0.0227,0.0188,0.0186,0.0192,0.0178,0.0176,0.0169,0.0168,0.0167,0.0167,0,0,0,0,0,0,0,0.0241,0.0243,0.0262,0.0253,0.025,0.0223,0.0224,0.0213,0.0225,0.0242,0.024,0.0228,0.0188,0.0193,0.019,0.0175,0.0169,0.0168,0.0167,0.0166,0.0157,0.0158,0,0,0,0,0,0,0.0237,0.0244,0.0263,0.0261,0.0236,0.0224,0.0225,0.0244,0.0225,0.022,0.0229,0.0227,0.0196,0.0192,0.0188,0.0206,0.0167,0.0166,0.0165,0.0157,0.0157,0.0158,0,0,0,0,0,0,0.0237,0.024,0.0264,0.0245,0.0245,0.0225,0.0246,0.0243,0.0237,0.0214,0.021,0.0223,0.0195,0.019,0.0189,0.0203,0.0165,0.0164,0.0156,0.0157,0.0158,0.0235,0,0,0,0,0,0,0.0237,0.0241,0.025,0.0246,0.0246,0.0272,0.0246,0.0243,0.0229,0.0227,0.0208,0.0203,0.0194,0.0191,0.0187,0.0201,0.0163,0.0155,0.0156,0.0158,0.0232,0.0238,0.0244,0,0,0,0,0,0.0236,0.0254,0.0251,0.0252,0.0261,0.0273,0.0272,0.0257,0.0229,0.0245,0.0228,0.0203,0.0195,0.0191,0.0186,0.02,0.0155,0.0156,0.0157,0.0229,0.0237,0.0244,0,0,0,0,0,0,0.0245,0.0254,0.0251,0.027,0.0275,0.0269,0.0256,0.0253,0.0252,0.0231,0.0216,0.0212,0.0212,0.0194,0.019,0.0199,0.0168,0.0169,0.0224,0.0231,0.0237,0.0247,0.0162,0,0,0,0,0,0.0251,0.0267,0.0272,0.0286,0.0276,0.0265,0.026,0.0256,0.025,0.0247,0.0238,0.0219,0.0217,0.0214,0.0204,0.0214,0.0189,0.0216,0.0222,0.0228,0.0232,0.0215,0.0221,0.0162,0.0162,0.0162,0,0,0.0252,0.0259,0.0265,0.0287,0.0271,0.0285,0.0261,0.0251,0.0273,0.0239,0.0253,0.0236,0.0221,0.0236,0.0234,0.0223,0.0231,0.023,0.0235,0.0236,0.0217,0.0223,0.0228,0.0163,0.0163,0.0163,0,0,0.0254,0.0267,0.0272,0.0289,0.0276,0.028,0.0278,0.0275,0.028,0.0297,0.0275,0.0276,0.0266,0.0276,0.0274,0.0306,0.026,0.029,0.0338,0.0322,0.0327,0.0331,0.0309,0.0311,0.03,0.03,0.03,0,0.0247,0.0279,0.0275,0.029,0.0303,0.028,0.03,0.0309,0.0316,0.033,0.0305,0.0309,0.0291,0.0325,0.0336,0.0322,0.0296,0.0315,0.0331,0.0334,0.0337,0.0314,0.0315,0.0304,0.0303,0.0303,0.0302,0,0.0265,0.0292,0.0289,0.0314,0.0331,0.0343,0.0356,0.0367,0.0357,0.0377,0.0397,0.0384,0.0389,0.0385,0.0369,0.0388,0.0358,0.0337,0.0316,0.0348,0.0321,0.0321,0.0309,0.0308,0.0307,0.0306,0,0,0.0263,0.0294,0.0303,0.0322,0.0352,0.0369,0.0396,0.0434,0.0456,0.0462,0.0503,0.0499,0.0483,0.0479,0.0461,0.0453,0.045,0.0405,0.0402,0.039,0.0405,0.0394,0.0391,0.0426,0.0426,0.0427,0.038,0,0.0279,0.0314,0.0342,0.0392,0.0404,0.0425,0.0468,0.05,0.0514,0.055,0.0545,0.056,0.0524,0.0517,0.051,0.0466,0.045,0.0464,0.037,0.0367,0.0359,0.0391,0.0387,0.0346,0.0379,0.0379,0.0379,0,0.029,0.0325,0.0358,0.0433,0.0442,0.0469,0.0526,0.0565,0.061,0.0616,0.0632,0.0632,0.0638,0.0584,0.0538,0.0544,0.0476,0.0436,0.0433,0.0395,0.0355,0.0317,0.0343,0.0377,0.0377,0.0377,0.0377,0,0.0267,0.0343,0.0369,0.0396,0.0467,0.0483,0.0517,0.0568,0.06,0.0639,0.066,0.0678,0.0669,0.0612,0.0544,0.0528,0.0482,0.0449,0.0377,0.0375,0.034,0.0335,0.0397,0.0397,0.0397,0.0397,0.0397,0,0.027,0.031,0.0353,0.0368,0.0425,0.0472,0.0513,0.0549,0.0598,0.0651,0.0675,0.0717,0.0669,0.0654,0.0572,0.0487,0.0499,0.0392,0.0368,0.0366,0.0364,0.0362,0.0359,0.0395,0.0396,0.0396,0.0396,0,0.023,0.0263,0.0302,0.037,0.0392,0.042,0.0483,0.052,0.0566,0.0628,0.0639,0.0722,0.0711,0.0666,0.0584,0.0517,0.0437,0.0392,0.0397,0.0374,0.0328,0.033,0.031,0.0309,0.0308,0.0308,0.0307,0,0.0211,0.0207,0.0267,0.0291,0.0314,0.036,0.0392,0.0464,0.0509,0.0641,0.0679,0.0719,0.0762,0.0672,0.0562,0.0436,0.0422,0.0341,0.0313,0.0344,0.0322,0.0324,0.0326,0.0292,0.0292,0.0291,0.0291,0,0.0171,0.0169,0.0202,0.0234,0.0264,0.0333,0.0387,0.0427,0.0537,0.0624,0.0757,0.081,0.075,0.0668,0.0509,0.0425,0.037,0.0328,0.0364,0.0321,0.0326,0.0305,0.0307,0.0287,0.0288,0.0288,0.0288,0.0288,0.0137,0.0145,0.0153,0.0205,0.0245,0.0322,0.0386,0.0479,0.0595,0.0767,0.0791,0.0869,0.0745,0.0558,0.0444,0.0332,0.0322,0.0264,0.0266,0.0268,0.028,0.0285,0.024,0.0241,0.0241,0.0241,0.0241,0,0.0103,0.0119,0.0137,0.0213,0.0266,0.0289,0.0411,0.0514,0.0687,0.079,0.09,0.0785,0.0678,0.0554,0.037,0.025,0.0251,0.023,0.0245,0.0248,0.0251,0.0264,0.0219,0.0219,0.0219,0.0219,0,0,0.0091,0.0099,0.0122,0.022,0.0274,0.0372,0.0458,0.0634,0.0746,0.0891,0.0922,0.0883,0.07,0.0551,0.0402,0.0321,0.0321,0.031,0.0334,0.0373,0.0378,0.0271,0.0294,0,0,0,0,0]}],[{"header":{"parameterUnit":"m.s-1","parameterCategory":2,"la1":30.2991,"la2":30.254,"lo1":-89.0895,"lo2":-89.0444,"dy":0.0017,"dx":0.0017,"nx":28,"ny":28,"refTime":"2025-04-10T09:00:00:Z","depth":"4","parameterNumber":2,"parameterNumberName":"U-component_of_CURRENTS"},"data":[0,0,0,0,0,0,0,0,0,0,0,0,0,0,0,0,0,0,0,0,0,0,0,0,0,0,0,0,0,0,0,0,0,0,0,0,0,0,0,0,0,0,0,0,0,0,0,0,0,0,0,0,0,0,0,0,0,0,-0.0478,-0.0479,0,-0.0507,-0.0508,-0.0508,-0.0494,-0.0493,-0.0493,-0.0492,-0.0572,-0.0575,-0.0577,0,0,0,0,0,0,0,0,0,0,0,0,0,-0.0474,-0.0474,-0.0478,-0.0479,-0.0479,-0.0507,-0.0508,-0.0508,-0.0494,-0.0493,-0.0492,-0.0491,-0.0571,-0.0574,-0.0578,0,0,0,0,0,0,0,0,0,0,0,0,0,-0.0487,-0.0473,-0.0478,-0.0475,-0.0475,-0.0507,-0.0508,-0.0508,-0.0495,-0.0493,-0.0492,-0.0491,-0.057,-0.0574,-0.0578,-0.0629,0,0,-0.0591,-0.0593,0,0,0,0,0,0,0,0,-0.0486,-0.0487,-0.0475,-0.0475,-0.0475,-0.0495,-0.0535,-0.0551,-0.0495,-0.0488,-0.0492,-0.049,-0.0551,-0.0557,-0.0566,-0.0633,-0.0637,-0.0592,-0.0594,-0.0596,-0.0597,0,0,0,0,0,0,0,-0.0485,-0.0486,-0.0491,-0.0475,-0.0475,-0.0493,-0.0493,-0.0538,-0.0528,-0.0488,-0.0487,-0.049,-0.0552,-0.0561,-0.0568,-0.0638,-0.0592,-0.0595,-0.0598,-0.06,-0.0724,-0.0725,0,0,0,0,0,0,-0.0478,-0.0485,-0.049,-0.0491,-0.0477,-0.0494,-0.0494,-0.0491,-0.0526,-0.053,-0.0491,-0.0489,-0.0555,-0.0562,-0.057,-0.0571,-0.0596,-0.06,-0.0603,-0.0723,-0.0724,-0.0725,0,0,0,0,0,0,-0.0478,-0.0478,-0.0488,-0.0489,-0.0491,-0.0495,-0.0491,-0.0492,-0.0479,-0.0527,-0.0531,-0.0474,-0.0554,-0.0564,-0.0598,-0.0577,-0.0602,-0.0606,-0.0723,-0.0724,-0.0725,-0.0614,0,0,0,0,0,0,-0.0478,-0.0478,-0.0472,-0.0488,-0.0491,-0.0496,-0.0493,-0.0493,-0.0484,-0.0481,-0.0516,-0.0523,-0.0554,-0.0591,-0.0602,-0.0583,-0.061,-0.0722,-0.0723,-0.0724,-0.0616,-0.0611,-0.0606,0,0,0,0,0,-0.0477,-0.0478,-0.0472,-0.0472,-0.0483,-0.0496,-0.0499,-0.0499,-0.0483,-0.0482,-0.0504,-0.052,-0.0607,-0.0595,-0.0608,-0.0589,-0.0721,-0.0723,-0.0724,-0.0619,-0.0612,-0.0606,0,0,0,0,0,0,-0.048,-0.0477,-0.047,-0.0471,-0.0476,-0.0493,-0.0493,-0.0488,-0.0503,-0.0492,-0.0531,-0.0541,-0.0566,-0.0605,-0.059,-0.0635,-0.0667,-0.0671,-0.0583,-0.0577,-0.0572,-0.0536,-0.0613,0,0,0,0,0,-0.0476,-0.047,-0.0475,-0.0475,-0.0473,-0.0477,-0.0479,-0.0472,-0.0489,-0.0491,-0.0507,-0.0542,-0.0589,-0.06,-0.0647,-0.0669,-0.0709,-0.067,-0.0665,-0.066,-0.0643,-0.0711,-0.0709,-0.073,-0.073,-0.073,0,0,-0.0478,-0.0476,-0.0473,-0.0474,-0.0476,-0.047,-0.0475,-0.0467,-0.0456,-0.0502,-0.0488,-0.0527,-0.0596,-0.0618,-0.0631,-0.0639,-0.0672,-0.0662,-0.0656,-0.0643,-0.0712,-0.071,-0.0708,-0.0731,-0.0731,-0.0731,0,0,-0.0481,-0.0473,-0.0466,-0.0463,-0.0455,-0.0458,-0.0447,-0.0441,-0.043,-0.0429,-0.0466,-0.0495,-0.0537,-0.0584,-0.0617,-0.062,-0.065,-0.0625,-0.0555,-0.062,-0.0618,-0.0617,-0.0642,-0.0644,-0.0612,-0.0612,-0.0611,0,-0.048,-0.0471,-0.0469,-0.0458,-0.0453,-0.0445,-0.0432,-0.0427,-0.0428,-0.042,-0.0409,-0.0477,-0.0527,-0.0578,-0.0561,-0.0605,-0.0625,-0.0563,-0.0609,-0.0609,-0.0609,-0.0637,-0.064,-0.0606,-0.0607,-0.0608,-0.0608,0,-0.0476,-0.0463,-0.0459,-0.0438,-0.0433,-0.0422,-0.041,-0.0387,-0.0361,-0.0356,-0.0368,-0.0427,-0.0458,-0.0484,-0.0511,-0.054,-0.0545,-0.0598,-0.0612,-0.06,-0.063,-0.0635,-0.0599,-0.0601,-0.0602,-0.0604,0,0,-0.0486,-0.046,-0.0457,-0.0438,-0.0416,-0.041,-0.0382,-0.0365,-0.034,-0.0326,-0.0313,-0.0366,-0.036,-0.0398,-0.0444,-0.0486,-0.0498,-0.0509,-0.0515,-0.0509,-0.0595,-0.0474,-0.0469,-0.0541,-0.0542,-0.0543,-0.0605,0,-0.0481,-0.0461,-0.0448,-0.0418,-0.0402,-0.0378,-0.0354,-0.0332,-0.0309,-0.0292,-0.0328,-0.0336,-0.034,-0.0339,-0.0376,-0.0491,-0.0509,-0.0473,-0.0629,-0.0633,-0.0508,-0.0471,-0.0546,-0.0609,-0.0611,-0.0612,-0.0612,0,-0.048,-0.0464,-0.0435,-0.0395,-0.0384,-0.0349,-0.0302,-0.0278,-0.0258,-0.024,-0.0229,-0.0252,-0.0292,-0.0308,-0.043,-0.0394,-0.0456,-0.0537,-0.0544,-0.047,-0.0522,-0.0636,-0.0623,-0.0622,-0.0621,-0.0621,-0.062,0,-0.0487,-0.0456,-0.043,-0.0416,-0.0368,-0.0324,-0.028,-0.0242,-0.0227,-0.0188,-0.0193,-0.0216,-0.0256,-0.0327,-0.0435,-0.0426,-0.0588,-0.0623,-0.0571,-0.0564,-0.0705,-0.0706,-0.0694,-0.0694,-0.0694,-0.0694,-0.0694,0,-0.0472,-0.0455,-0.0415,-0.0391,-0.0332,-0.0294,-0.0225,-0.0186,-0.0162,-0.0169,-0.0146,-0.0184,-0.0262,-0.0355,-0.0428,-0.0494,-0.0579,-0.0531,-0.0565,-0.0656,-0.0651,-0.0707,-0.0708,-0.0696,-0.0696,-0.0695,-0.0695,0,-0.0455,-0.0443,-0.0417,-0.036,-0.0324,-0.0266,-0.0179,-0.0155,-0.0123,-0.0139,-0.0129,-0.0179,-0.0245,-0.033,-0.0481,-0.0494,-0.0583,-0.0592,-0.0649,-0.0692,-0.0508,-0.0503,-0.0507,-0.0504,-0.05,-0.0497,-0.0495,0,-0.0429,-0.0419,-0.0388,-0.0357,-0.0305,-0.0217,-0.0169,-0.0114,-0.0123,-0.0157,-0.0203,-0.0233,-0.0261,-0.0353,-0.0441,-0.0507,-0.0523,-0.055,-0.0518,-0.0452,-0.0487,-0.0487,-0.0486,-0.049,-0.0489,-0.0488,-0.0487,0,-0.0387,-0.0402,-0.0384,-0.0333,-0.0272,-0.0227,-0.0167,-0.0169,-0.0159,-0.0167,-0.0198,-0.0194,-0.0261,-0.0299,-0.0331,-0.0411,-0.0516,-0.0515,-0.0522,-0.0493,-0.0432,-0.0469,-0.0472,-0.0476,-0.0477,-0.0479,-0.0479,0,-0.0369,-0.036,-0.0363,-0.0304,-0.0266,-0.0246,-0.0202,-0.0189,-0.0172,-0.0206,-0.0228,-0.025,-0.0268,-0.0255,-0.0328,-0.0323,-0.0314,-0.0321,-0.0338,-0.0352,-0.0269,-0.0166,-0.0134,0,0,0,0,0,-0.0339,-0.034,-0.0319,-0.0274,-0.0259,-0.0238,-0.0229,-0.0215,-0.0224,-0.0216,-0.0197,-0.0225,-0.0208,-0.0237,-0.02,-0.0299,-0.0357,-0.0258,-0.0384,-0.0412,-0.0426,-0.034,0,0,0,0,0,0,-0.0322,-0.0322,-0.0326,-0.0284,-0.0253,-0.0234,-0.0237,-0.0245,-0.0233,-0.0228,-0.0214,-0.019,-0.0189,-0.0205,-0.0186,-0.0193,-0.0262,-0.0257,-0.0256,-0.0405,-0.0417,-0.0427,-0.0345,0,0,0,0,0]},{"header":{"parameterUnit":"m.s-1","parameterCategory":2,"la1":30.2991,"la2":30.254,"lo1":-89.0895,"lo2":-89.0444,"dy":0.0017,"dx":0.0017,"nx":28,"ny":28,"refTime":"2025-04-10T09:00:00:Z","depth":"4","parameterNumber":3,"parameterNumberName":"V-component_of_CURRENTS"},"data":[0,0,0,0,0,0,0,0,0,0,0,0,0,0,0,0,0,0,0,0,0,0,0,0,0,0,0,0,0,0,0,0,0,0,0,0,0,0,0,0,0,0,0,0,0,0,0,0,0,0,0,0,0,0,0,0,0,0,0.0262,0.0262,0,0.0245,0.0245,0.0245,0.0244,0.0244,0.0245,0.0245,0.0257,0.0257,0.0257,0,0,0,0,0,0,0,0,0,0,0,0,0,0.0268,0.0268,0.0262,0.0262,0.0262,0.0245,0.0245,0.0245,0.0244,0.0244,0.0245,0.0245,0.0257,0.0257,0.0257,0,0,0,0,0,0,0,0,0,0,0,0,0,0.0258,0.0268,0.0262,0.0261,0.0261,0.0245,0.0245,0.0244,0.0244,0.0244,0.0245,0.0246,0.0257,0.0257,0.0257,0.0244,0,0,0.0256,0.0256,0,0,0,0,0,0,0,0,0.0258,0.0257,0.0261,0.0261,0.0261,0.0249,0.0251,0.0247,0.0244,0.0248,0.0245,0.0246,0.0258,0.0258,0.025,0.0245,0.0245,0.0256,0.0256,0.0256,0.0256,0,0,0,0,0,0,0,0.0259,0.0258,0.0253,0.0261,0.0261,0.0253,0.0252,0.025,0.0249,0.0248,0.0248,0.025,0.0258,0.025,0.025,0.0246,0.0256,0.0256,0.0256,0.0256,0.0199,0.0197,0,0,0,0,0,0,0.0266,0.0259,0.0254,0.0253,0.0263,0.0253,0.0252,0.0251,0.0248,0.0249,0.0249,0.025,0.025,0.025,0.0251,0.0209,0.0256,0.0256,0.0256,0.02,0.0199,0.0197,0,0,0,0,0,0,0.0266,0.0265,0.0255,0.0257,0.0256,0.0252,0.0251,0.025,0.0243,0.0249,0.025,0.0243,0.025,0.0251,0.023,0.0211,0.0256,0.0256,0.0202,0.02,0.0198,0.0144,0,0,0,0,0,0,0.0266,0.0265,0.0264,0.0258,0.0256,0.0235,0.0251,0.0249,0.0244,0.0244,0.0244,0.0246,0.0251,0.023,0.023,0.0212,0.0256,0.0204,0.0201,0.0198,0.0148,0.0141,0.0134,0,0,0,0,0,0.0266,0.0259,0.0264,0.0264,0.0255,0.0235,0.0232,0.0231,0.0243,0.0228,0.0223,0.0246,0.0212,0.0228,0.0228,0.021,0.0205,0.0202,0.0199,0.0151,0.0142,0.0135,0,0,0,0,0,0,0.0257,0.0259,0.0264,0.0257,0.0244,0.0235,0.023,0.0228,0.0213,0.0219,0.0225,0.0225,0.0197,0.0209,0.0226,0.0184,0.0213,0.021,0.0177,0.0169,0.0162,0.0173,0.0256,0,0,0,0,0,0.0256,0.0254,0.0249,0.0242,0.024,0.0235,0.0229,0.0226,0.0215,0.021,0.0205,0.02,0.0182,0.0181,0.0167,0.0149,0.0164,0.0137,0.0131,0.0125,0.0133,0.0108,0.01,0.0186,0.0186,0.0186,0,0,0.025,0.0252,0.025,0.024,0.0238,0.0221,0.0232,0.022,0.02,0.0214,0.0185,0.0174,0.0169,0.0138,0.0129,0.0149,0.011,0.0121,0.0116,0.0127,0.0104,0.0096,0.0088,0.0184,0.0184,0.0185,0,0,0.0236,0.0241,0.0236,0.0224,0.0219,0.0211,0.0207,0.0192,0.0181,0.0153,0.0148,0.0119,0.011,0.0087,0.008,0.0028,0.0068,0.0033,0.0016,-0.0009,-0.0015,-0.0021,0.0,-0.0003,0.0038,0.0037,0.0037,0,0.0231,0.0227,0.0227,0.0216,0.021,0.0206,0.0192,0.017,0.0144,0.013,0.014,0.0087,0.0081,0.0033,0.0017,0.0013,0.0029,0.0049,-0.0017,-0.0022,-0.0027,-0.0004,-0.0007,0.0034,0.0035,0.0035,0.0035,0,0.021,0.0207,0.0203,0.0191,0.0176,0.0165,0.0143,0.0121,0.0115,0.0093,0.0046,0.0022,0.0002,-0.0018,-0.0009,-0.0056,-0.0021,-0.0029,0.0007,-0.0039,-0.0011,-0.0014,0.003,0.0031,0.0032,0.0033,0,0,0.0201,0.0193,0.0194,0.0194,0.0168,0.0159,0.012,0.0086,0.0065,0.0027,-0.0007,-0.0054,-0.0054,-0.0063,-0.0072,-0.0098,-0.012,-0.0067,-0.0067,-0.0039,-0.0132,-0.0111,-0.0111,-0.0133,-0.0134,-0.0135,-0.0093,0,0.0191,0.0187,0.0172,0.0156,0.0156,0.0133,0.0098,0.0062,0.0032,-0.001,-0.0049,-0.0078,-0.0075,-0.0076,-0.0108,-0.0129,-0.013,-0.0128,-0.0097,-0.0095,-0.0066,-0.0116,-0.0139,-0.0094,-0.0095,-0.0095,-0.0095,0,0.0177,0.0183,0.0187,0.0165,0.0161,0.0156,0.012,0.0083,0.0015,-0.001,-0.0054,-0.0085,-0.0132,-0.0116,-0.0159,-0.0152,-0.0129,-0.014,-0.0139,-0.01,-0.0079,-0.0042,-0.0099,-0.0099,-0.0099,-0.0098,-0.0098,0,0.0197,0.0185,0.0205,0.0199,0.0173,0.0183,0.017,0.0109,0.0072,0.0013,-0.0024,-0.0089,-0.0111,-0.0128,-0.0135,-0.0141,-0.0169,-0.0184,-0.0138,-0.0134,-0.0139,-0.0133,-0.0189,-0.0189,-0.0189,-0.0189,-0.0189,0,0.0187,0.0194,0.024,0.0248,0.0271,0.0239,0.0233,0.0198,0.0131,0.0072,0.0007,-0.0057,-0.0115,-0.0147,-0.0139,-0.0141,-0.0161,-0.0142,-0.0135,-0.016,-0.0157,-0.0139,-0.0133,-0.0187,-0.0188,-0.0188,-0.0188,0,0.0185,0.0211,0.0238,0.0265,0.0291,0.0314,0.0302,0.0263,0.0211,0.0132,0.0117,-0.002,-0.0073,-0.0105,-0.0137,-0.0141,-0.0144,-0.0118,-0.0107,-0.0099,-0.0087,-0.0085,-0.0094,-0.0093,-0.0093,-0.0092,-0.0092,0,0.018,0.0209,0.0282,0.0323,0.0354,0.039,0.0389,0.0336,0.0261,0.0142,0.0073,0.0013,-0.0064,-0.0088,-0.0129,-0.0104,-0.0095,-0.0079,-0.0125,-0.0091,-0.0084,-0.0083,-0.0082,-0.0091,-0.009,-0.009,-0.009,0,0.0172,0.0222,0.0242,0.0346,0.0395,0.0399,0.0386,0.0324,0.0217,0.0188,0.0067,0.0027,-0.004,-0.0092,-0.0051,-0.0046,-0.0103,-0.0072,-0.0074,-0.0118,-0.0087,-0.008,-0.008,-0.0088,-0.0088,-0.0088,-0.0088,0,0.0181,0.0196,0.0261,0.0343,0.0405,0.0384,0.0363,0.0284,0.0224,0.0081,0.0056,-0.0005,-0.0038,-0.006,-0.0043,-0.0023,-0.004,-0.0039,-0.0044,-0.0047,-0.0059,-0.0014,0.001,0,0,0,0,0,0.0186,0.0199,0.0255,0.0315,0.0371,0.0417,0.0337,0.0276,0.0175,0.0114,0.0089,0.0045,0.0024,-0.0029,-0.0001,-0.0064,-0.0058,-0.0037,-0.0063,-0.0075,-0.0077,-0.01,0,0,0,0,0,0,0.0184,0.0221,0.0236,0.0298,0.0348,0.037,0.0325,0.0244,0.0172,0.0104,0.0086,0.01,0.0066,0.0072,0.0036,0.0027,0.0014,-0.0041,-0.0041,-0.0073,-0.0076,-0.0078,-0.0102,0,0,0,0,0]}]]